[問題] 下大雨開高速 用什麼模式

看板: car時間: 2020年11月25日作者: massbalance

請問各位大大 當你們在下大雨的時候開高速公路 如果車子有行車模式可以調整 會用什麼模式呢 是用ECO 模式讓動力輸出更溫和 減少突然的高扭力讓輪胎打滑 還是用Sport 模式 讓方向盤更重 減少不小心偏掉的機會 還是用雪地模式 反正都是希望增加抓地力 ----- Sent from JPTT on my iPhone --
※ 發信站: 批踢踢實業坊(ptt.cc), 來自: 223.140.91.124 (臺灣) ※ 文章網址: https://www.ptt.cc/bbs/car/M.1606273156.A.A64.html
1Fkkro002000: 慢速模式 依限速乖乖的開 注意前後左右保持安全距離 11/25 11:00
2Fstillcolor: auto 就好,軟體都幫你設定好了 11/25 11:00
3Feulbos: 三角警示燈模式 11/25 11:03
4Fsleepgod0602: 最快速度下交流道找汽車旅館睡到雨停 11/25 11:03
5Fdslite: 開acc滑手機 11/25 11:04
6Fmikemagic88: 我都搭高鐵 11/25 11:07
7Fdisonfall: 我開神R,下雨天不開車,不知該怎麼回你,抱歉 11/25 11:07
8Fricecake889: 2016 outlander開啟 4WD Auto 模式 11/25 11:12
9FMemoryEnd: 飛航模式 11/25 11:16
10Fgn02384419: 雨衣模式 11/25 11:23
11Fja6150: 雙閃燈內線慢慢龜模式 11/25 11:27
12Ffire124: 你玩什麼遊戲先講清楚才能回答你 11/25 11:30
13Fstphon: 仙人模式 11/25 11:34
14FByzantin: 聖人模式 11/25 11:37
15Fdeity521: 想太多模式 11/25 11:39
16Fstone0504: 我都是打 P檔停車庫啦 11/25 11:41
17Fyesmotel: 成人模式,副駕妹子一邊吹一邊開,過癮 11/25 11:41
18Fjordonmi: R檔+sport 11/25 11:43
19Ftntbear: 打開推進器 11/25 11:47
20Fatmmaxing: 全集中呼吸模式 給你參考 11/25 11:47
21Fbc0121: NT-D,車子性能會提升還會裂甲發光,好不帥氣 11/25 11:50
22Feulbos: 可以的話下交流道 切blow模式 給你參考 11/25 11:56
23Forange22: Zone模式 雨滴會跟不上你 11/25 11:57
24Ffallheart: 前後霧燈警示燈、煞車燈全開 11/25 11:59
25Fpasserk: 天窗打開 洗澡模式預備備 11/25 12:01
26Fgx9900824: 兩腳開開 準備投胎 11/25 12:03
27Fm82: 降速開ACC 11/25 12:08
28Fa94260088: 下大雨開ACC認真? 11/25 12:11
29Fd820208: 進入零的領域 11/25 12:11
30FJER2725: aero mode change 11/25 12:19
31Fgausong: 原則上當然是如一樓說的,但模式沒幫助嗎?為啥沒 11/25 12:23
32Fgausong: 有人要回答 11/25 12:24
33Fnbarepeat: 慢慢開模式 11/25 12:27
34Fsegio: 沒.開快啥模式都是一樣.. 11/25 12:28
35Fkkro002000: 原po說高速公路又不是賽道 路況不好只有慢慢開模式 11/25 12:32
36Fkkro002000: 最穩 其他都沒意義 11/25 12:32
37Frefgdata: 防漏水模式 11/25 12:48
38FMaxLJ: 我都開窗,給你參考 11/25 12:51
39FMUMUKON: 我都開sport+ 關動態穩定 供你參考 11/25 12:52
40Fgodchildtw: 睡覺模式,等雨變小再開 11/25 13:01
41Fruruder: N檔給後車推著跑 11/25 13:09
42Fyytseng: 下大雨就ACC設89km/hr 開內線 開後霧燈 11/25 13:11
43Fpeterpeterpe: 我都開飛航模式 給你參考 11/25 13:15
44Ftiamo330: 高速模式然後打開推進器,倒數30秒 11/25 13:23
45FBlacKlonely: 上香模式 祈禱可以早七天到家 11/25 13:31
46FKAOGUY0617: 內線龜車模式 11/25 13:33
47Fdrung: 避開內外線積水在中線雙手抓緊認真開模式 11/25 13:44
48Fdrung: 如果你車子沒有AWD也不用想什麼模式了,保持安全距 11/25 13:48
49Fdrung: 離遇到車流減速馬上注意後車動態就好 11/25 13:48
50Fdrung: 有些假會的高速公路飆直線猴子會習慣關ESP 11/25 13:52
51Fdrung: 那種會比較晚到家 11/25 13:52
52Fmp60707: 你的車如果能挑模式 你說的狀況都不太可能發生 11/25 13:52
53Fdynamo: Auto就可以了吧 11/25 14:05
54Ffenderrb: 慢一點啊 模什麼式 11/25 14:09
55Fvic4807: 慢慢開啊 11/25 14:20
56Fj32072: Sport+換檔s模式 11/25 14:24
57Fdc8: 開慢一點就對了 11/25 14:47
58Fbgflyer: 用戰鬥模式 11/25 14:49
59Fecnecsinimer: 摸副駕腿腿模式 11/25 15:12
60Fmaxint: 進休息站等雨停模式 11/25 15:55
61FNikon610: 米其林ps4s模式 11/25 16:08
62FAustinRivers: 水之呼吸 11/25 16:55
63Fliilliiliilx: 飛航模式 11/25 17:43
64Froger9310754: 開Rav4要先穿雨衣 11/25 18:11
65Fnat50601tw: 你這要還敢開哦 11/25 18:32
66Fnat50601tw: 這樣 11/25 18:32
67Fjansan: 建議請代駕 11/25 19:03
68Fapps9661509: 下雨天要穿雨衣開車很不方便 11/25 19:39
69Foh5566oh5566: 我常駐corsa 11/25 21:06
70FJoanne20821: 穿雨衣模式!因為會漏水 11/25 21:07
71Fzengzhe: 警示燈、Sport+再長按循跡全關 11/25 22:01
72Fifromtaiwan: 外線規模式,好狗不擋路 11/25 23:30
73Flagadidi: 上次開神R是用除濕模式,給你參考 11/25 23:37
74Fryanbin: 推雨衣模式 11/26 00:29
75Fwisdom: SAWC開SNOW模式給你參考 11/26 18:28
76Fjonathan123: 飛航模式 11/26 22:28
77Fcalendario: 如果是Eclipse Cross的S-AWC版,可以用SNOW模式 12/08 10:21

car熱門文章

29 [問題] Ford active
42 car 2021-01-15 18:24
34 [問題] HP5大家都換多少錢?
55 car 2021-01-14 18:54
28 [問題] 這個可以檢舉什麼?
131 car 2021-01-14 14:18
65 [問題] 停紅燈後車推撞
273 car 2021-01-14 08:50
36 [問題] 花蓮租車選擇
56 car 2021-01-14 02:21
238 [問題] Audi A5選色請益
325 car 2021-01-11 18:51
32 [問題] 巷弄停車
82 car 2021-01-11 17:56

全站熱門文章

33 [問題] 888真有那麼爛?
118 mobilecomm 2021-01-15 21:38
29 [問題] Ford active
42 car 2021-01-15 18:24
78 [請益] 今天大盤怎麼了
133 stock 2021-01-15 18:23